sat.trackr.live / text

‹ back to catalog

STARLINK-32586

NORAD 61975 · 2024-210S

PAYLOAD ACTIVE UNKNOWN

§ Identity

Operator
Country
US
Launch date
2024-11-14
Launch site
AFETR
Launch vehicle
Mass (kg)
RCS (m²)

Purposes: comms

External: N2YO · Heavens-Above · Gunter

§ Orbital elements

Epoch: 2026-05-24T22:58:27.759072Z

Period
94.27 min
Inclination
43.0001°
Eccentricity
0.0001542
Mean motion
15.27590199 rev/d
Perigee alt
482.0 km
Apogee alt
484.1 km
Semi-major
6,861.2 km
B*
5.3357e-4
RAAN
109.1384°
Arg perigee
267.4374°
Mean anomaly
92.6301°
Rev number
8,654

§ Raw data

STARLINK-325861 61975U 24210S   26144.95726573  .00014454  00000+0  53357-3 0  99912 61975  43.0001 109.1384 0001542 267.4374  92.6301 15.27590199 86541

JSON: /api/v1/satellites/61975 · /tle

For live sub-satellite position, see the globe view (requires WebGL).

§ Visibility from observer

Set your observer location to see the next 7 days of passes ≥ 10°. The values pass through the URL so the page stays shareable.

No JS? Fill the form by hand. The geolocation button needs JavaScript.